Terug naar catalogus

STARLINK-11714

ActiefCommunicatieVLEO
NORAD 64134·PAYLOAD·🇺🇸 United States

Gelanceerd May 24, 2025 vanaf Cape Canaveral Space Force Station

Loading…

Volgende Passages (komende 24 uur)

TLE

VersSource: CelesTrak SupGP

Epoch: Sep 14, 2026, 20:55 UTC

1 64134C 25111M   26257.87201389 -.00023023  00000+0 -17887-3 0  2570
2 64134  43.0007 273.0868 0001666 253.9033 241.1719 15.70841981    12

Volg STARLINK-11714 in realtime met AllMySat

Download on the App Store